Wind_Speed
61 58 56 56 53 54 52 50 48 43 40 36 37 36 34 35 31 28 27 27 26 22 22 26 29 29 27 25 24 22 23 24 27 31 31 31 31 29 29 29 29 27 25 24 23 20 17 15 14
64 59 60 57 56 57 57 55 55 51 48 44 40 41 40 38 37 35 32 30 28 28 25 24 25 28 27 25 24 22 21 21 24 29 30 30 30 30 30 31 31 29 26 24 22 21 17 18 16
69 66 65 61 60 59 65 61 60 59 54 51 46 43 41 42 42 39 37 35 33 31 28 28 28 25 26 26 25 23 22 21 22 24 27 30 30 31 32 31 31 32 28 23 21 21 20 18 18
71 73 65 67 64 67 64 68 63 62 60 57 52 47 47 43 46 43 41 39 38 36 34 34 33 33 32 30 29 27 26 24 24 23 23 25 26 25 23 23 21 22 23 22 20 19 20 20 20
77 73 73 65 71 73 73 71 69 62 63 60 58 53 50 51 47 47 46 42 43 43 43 39 39 37 38 38 36 33 32 30 28 27 27 27 26 25 26 24 24 24 24 24 24 22 22 22 22
74 77 77 75 74 78 79 72 71 64 64 63 62 61 56 55 55 53 52 50 49 48 47 46 46 46 44 43 42 42 42 39 35 33 32 32 31 30 30 31 30 28 28 29 30 28 28 27 28
78 76 77 82 83 80 80 74 73 72 68 70 64 60 63 63 60 59 58 57 57 55 53 53 52 53 51 49 49 47 48 47 46 45 43 39 39 38 37 35 36 35 35 35 36 36 33 32 33
85 84 79 83 85 86 83 74 76 77 76 71 73 67 65 61 69 66 66 63 62 61 61 61 60 59 59 57 57 57 53 53 50 49 49 50 47 43 43 43 42 41 41 40 38 40 40 36 35
96 89 86 86 86 91 84 80 81 80 78 79 77 74 70 64 63 65 68 70 67 67 65 65 65 63 62 65 65 63 62 60 58 56 55 55 55 55 51 48 49 50 47 47 44 43 43 41 38
97 92 91 95 89 91 88 88 84 84 85 82 81 80 78 73 72 72 71 72 69 70 70 70 69 71 68 67 68 67 65 66 65 64 62 60 59 58 60 59 57 57 56 53 53 50 51 47 44
93 97 95 89 93 97 92 90 90 90 89 88 85 84 77 74 74 76 79 79 79 76 72 73 73 72 74 72 70 71 71 69 68 68 68 64 65 65 60 60 60 59 58 58 58 59 59 56 49
78 85 87 89 84 85 89 95 92 92 88 98 93 91 81 78 79 80 78 74 76 77 79 79 78 78 78 79 76 76 77 76 75 75 74 73 71 70 71 71 69 66 64 62 60 62 62 62 59
68 72 76 80 85 84 83 85 83 89 91 98 96 94 87 89 87 87 88 87 83 82 82 80 80 80 79 79 80 80 79 79 80 79 79 79 79 77 75 75 75 74 71 69 69 67 66 66 63
63 66 70 74 76 79 82 85 87 87 85 89 91 98 95 86 91 89 86 87 90 91 90 87 87 85 85 85 85 84 84 84 83 82 82 82 82 81 81 80 79 79 78 75 73 69 69 69 68
62 64 66 69 71 73 75 81 86 86 85 87 88 87 86 87 88 94 92 92 92 91 92 91 91 94 96 91 91 90 91 90 89 88 88 87 87 84 82 84 84 84 83 81 77 74 73 71 73
65 64 64 64 64 66 68 73 78 76 82 86 83 83 81 77 77 81 85 89 93 95 96 99 99 98 100 102 100 98 96 93 93 92 92 91 87 88 86 85 86 85 86 85 81 79 76 76 75
67 65 63 60 60 60 62 65 65 67 69 70 72 73 70 69 72 76 79 84 87 89 95 97 99 102 101 102 103 109 107 106 104 99 97 97 94 91 91 89 90 91 91 88 88 85 85 81 79
70 68 66 62 58 56 58 62 61 60 62 63 61 61 58 59 59 64 67 71 75 77 79 82 85 89 94 99 102 103 104 106 107 108 105 103 99 95 92 86 90 95 93 91 94 93 88 85 84
73 70 68 67 62 60 61 63 65 61 66 63 62 61 61 62 63 69 68 68 71 73 75 76 78 83 88 91 94 98 102 104 103 104 105 104 102 100 96 89 78 90 92 91 97 99 93 89 88
77 75 74 73 69 65 67 69 69 68 69 66 67 65 66 64 64 68 67 68 72 71 74 75 79 83 87 89 95 95 100 102 100 101 100 101 97 98 97 99 105 108 105 101 102 95 101 98 96
75 75 77 79 74 71 71 73 72 72 68 64 63 63 62 62 64 66 69 70 71 72 74 77 82 85 84 86 90 91 97 95 100 102 101 98 94 94 94 80 91 101 96 103 103 99 103 100 92
78 76 77 77 72 71 69 71 71 70 65 62 61 61 63 65 67 66 69 70 71 73 75 78 77 74 75 78 85 92 92 94 94 95 97 98 100 98 92 89 94 95 93 92 96 102 103 105 98
81 80 77 76 73 72 66 72 73 69 65 63 61 60 63 64 64 66 67 67 69 70 72 76 72 66 64 71 81 85 91 95 93 93 90 95 96 96 96 92 98 99 96 93 95 99 97 105 94
70 79 78 75 75 73 73 71 75 72 68 69 66 64 63 66 69 69 67 66 66 68 67 67 61 62 56 54 67 78 88 92 99 98 90 89 89 94 95 96 101 99 98 99 100 102 98 98 94
62 66 74 77 72 71 75 71 77 70 72 70 69 67 67 70 71 68 66 64 64 64 64 57 54 53 53 50 50 63 78 87 93 93 97 95 90 90 87 93 97 102 104 107 103 101 99 97 97
61 63 64 70 74 74 72 71 75 67 74 72 72 72 70 70 70 67 64 64 62 60 59 52 47 42 42 42 40 46 70 88 95 94 93 86 87 88 89 86 85 89 90 96 103 105 103 105 105
59 57 64 60 64 69 69 71 71 70 72 72 71 71 71 70 67 66 64 63 60 55 52 46 42 34 30 26 27 30 40 53 77 78 86 90 85 82 84 85 85 94 95 90 92 90 95 97 97
56 60 57 61 56 60 67 69 72 71 71 70 68 68 68 65 63 64 62 60 56 51 48 43 37 33 27 23 19 19 22 28 38 57 83 85 87 88 94 97 95 91 89 89 93 94 93 96 99
49 54 57 58 57 55 56 61 63 64 66 66 64 63 62 61 62 61 60 57 55 50 45 40 38 34 31 25 21 19 18 18 20 24 30 38 46 50 54 58 65 74 81 88 92 93 97 88 85
43 50 54 56 58 56 55 60 60 64 64 64 63 61 60 59 58 57 56 55 55 51 45 38 39 37 36 33 30 29 27 26 28 31 35 39 44 49 51 53 54 56 57 61 65 68 71 72 73
Wind_Direction
233 237 242 243 243 250 253 247 247 246 249 247 242 245 246 247 249 251 253 258 262 250 255 256 260 259 259 259 262 270 279 267 247 244 248 254 259 263 265 266 268 267 267 269 268 269 264 261 262
232 234 236 239 241 246 251 250 243 243 244 248 250 251 252 251 250 251 255 258 261 263 261 262 263 259 250 249 255 261 272 273 259 252 253 255 258 261 265 266 267 267 265 268 267 262 252 255 273
235 236 236 236 241 247 247 248 247 241 241 246 249 253 254 254 255 252 255 258 259 260 259 263 265 261 252 250 250 256 258 265 268 268 266 266 266 268 272 273 276 274 272 272 271 273 276 285 302
237 236 233 237 242 247 243 244 248 246 239 242 250 254 255 257 255 255 255 254 257 258 254 256 258 264 259 253 251 255 253 257 260 264 268 270 273 274 272 275 275 275 276 281 280 280 281 286 289
238 240 235 238 241 247 245 244 245 245 245 241 248 250 257 255 252 255 254 252 253 255 257 255 257 259 263 266 259 254 253 255 255 255 260 264 263 266 269 270 269 267 266 268 273 270 274 278 281
240 242 241 241 243 244 245 244 247 247 246 250 251 249 252 253 252 255 253 253 256 257 259 259 259 263 265 263 261 262 266 266 257 253 254 259 260 260 263 269 268 268 270 270 270 271 274 277 280
244 244 243 241 241 246 244 243 245 251 247 246 248 249 251 253 255 254 254 252 253 255 257 259 260 262 261 261 261 262 266 267 269 268 264 259 261 261 260 262 266 268 268 270 276 279 282 286 287
246 246 241 243 240 243 243 243 242 245 248 246 247 247 248 255 253 255 254 252 255 255 259 259 259 262 263 263 265 265 267 266 266 266 266 268 267 263 264 265 266 267 269 273 275 279 281 282 281
250 246 242 243 245 244 242 241 242 245 247 251 249 246 246 252 256 257 255 253 256 256 257 259 261 262 264 264 265 265 266 265 266 269 269 267 265 267 265 266 268 268 268 271 272 276 277 279 279
246 245 243 242 243 244 244 243 244 242 245 251 249 248 247 252 256 258 259 257 258 258 259 260 260 264 264 264 263 264 268 269 267 267 271 268 265 263 265 266 269 273 276 275 275 276 279 281 283
242 244 244 244 243 241 243 245 241 242 244 248 250 249 246 247 253 256 259 259 262 260 262 263 262 264 264 265 264 265 267 268 269 270 271 270 269 266 263 264 265 268 271 275 278 279 280 280 280
240 241 240 241 241 242 244 246 246 246 246 247 249 250 245 244 246 248 250 255 259 260 260 259 260 260 263 262 263 264 265 267 267 269 269 268 268 268 269 268 269 269 269 271 272 274 279 280 282
240 239 239 238 238 240 240 240 243 243 245 246 244 249 249 248 248 247 251 255 256 257 258 260 260 259 259 260 261 260 261 262 265 265 266 269 269 269 268 268 270 271 271 272 277 276 279 281 283
241 240 240 239 238 240 240 241 240 241 241 245 245 246 246 251 253 256 256 257 259 260 261 260 261 259 260 260 257 258 259 262 261 261 265 264 265 266 268 269 270 271 273 274 275 277 276 278 280
240 239 240 240 240 242 243 243 244 243 243 246 247 247 248 248 251 252 256 257 258 260 261 262 262 261 260 259 259 258 258 260 260 261 261 261 262 265 266 268 269 269 270 272 273 273 274 275 278
238 240 241 241 242 242 243 246 245 247 248 249 249 251 251 249 252 257 259 258 257 258 260 261 261 262 262 262 261 261 260 259 259 260 261 260 263 262 263 263 264 264 268 269 269 270 271 273 274
236 239 240 239 240 239 239 241 241 243 243 245 246 248 251 254 254 255 254 255 256 258 260 260 259 259 259 259 262 261 260 260 258 259 258 258 260 258 260 261 262 263 266 268 268 268 269 270 270
232 235 237 239 237 237 238 241 240 240 242 243 246 249 253 255 258 258 258 259 262 262 262 262 262 261 260 261 261 259 258 256 256 257 256 255 256 259 259 266 263 261 262 264 265 267 268 266 267
231 234 237 238 236 238 239 241 243 242 243 247 249 252 253 255 255 257 257 259 261 263 264 265 267 266 266 262 258 256 255 256 255 253 253 253 254 252 254 249 254 256 256 259 264 266 267 265 266
233 233 235 238 237 237 239 242 244 244 244 246 249 250 251 251 252 254 258 259 261 264 265 270 270 271 270 267 263 257 254 252 252 253 252 251 251 250 250 251 254 259 258 255 256 261 264 263 264
234 236 236 237 236 237 239 242 244 244 245 246 246 250 251 253 255 257 260 263 265 268 268 271 274 272 267 263 260 257 256 250 250 250 250 250 251 250 248 251 267 255 251 255 259 257 260 264 265
231 233 236 238 237 236 237 240 242 243 242 243 245 251 254 254 259 261 263 267 269 271 273 277 278 273 267 261 257 256 254 256 252 248 249 248 248 247 246 241 239 250 254 254 255 256 258 257 261
232 231 234 238 237 235 232 239 240 242 243 246 248 251 256 263 266 267 268 269 271 274 278 283 281 273 274 262 255 252 251 252 253 253 249 248 248 247 246 246 246 251 253 252 256 257 257 257 258
235 234 233 235 238 235 235 236 242 240 245 249 251 255 259 262 266 268 271 271 273 276 282 285 283 285 283 270 260 252 248 249 252 255 255 255 252 251 249 248 248 251 253 253 252 254 257 259 260
235 234 234 234 236 237 237 237 243 244 246 249 253 255 257 261 264 268 269 270 272 278 285 285 285 291 289 282 267 253 245 242 250 254 257 260 258 257 257 254 253 251 253 253 255 257 260 260 262
234 233 233 235 236 237 237 239 242 245 249 249 250 253 256 259 263 265 266 269 273 279 286 284 290 292 288 288 274 256 242 244 248 253 256 257 262 260 260 258 254 256 255 257 258 259 260 260 262
233 234 234 235 236 237 239 241 242 242 246 248 250 251 254 258 260 263 266 269 273 279 285 279 288 292 284 277 272 265 255 249 247 245 249 252 254 256 254 258 260 259 264 263 264 260 260 262 261
233 232 233 235 236 236 238 238 240 240 242 245 248 251 254 257 259 263 264 267 271 277 282 276 278 280 284 282 275 262 256 257 255 252 249 248 252 258 263 264 264 261 265 260 258 263 261 267 265
233 232 233 234 236 237 237 238 240 238 241 243 247 250 254 259 261 260 262 266 268 272 276 276 268 271 274 276 272 270 269 267 264 260 256 253 255 261 264 265 263 263 264 263 265 266 265 265 263
235 231 231 232 233 235 238 241 241 241 243 247 250 252 253 253 255 257 259 264 266 269 274 275 262 264 267 270 268 268 270 270 269 270 271 271 270 269 268 267 266 266 266 266 266 265 265 267 268
Height
10936 10940 10943 10945 10951 10952 10954 10958 10964 10969 10974 10980 10982 10982 10984 10986 10988 10991 10992 10992 10993 10992 10991 10992 10993 10994 10995 10996 10996 10996 10995 10994 10995 10996 10996 10996 10996 10996 10997 10996 10996 10996 10996 10996 10995 10995 10994 10993 10992
10925 10930 10933 10937 10943 10944 10943 10946 10953 10959 10965 10971 10976 10977 10979 10981 10983 10984 10986 10987 10988 10989 10989 10988 10989 10989 10990 10991 10992 10992 10992 10992 10992 10993 10993 10993 10993 10992 10992 10993 10992 10992 10991 10991 10991 10990 10990 10989 10989
10915 10919 10923 10928 10932 10934 10930 10935 10941 10949 10956 10962 10968 10971 10974 10976 10976 10978 10980 10982 10983 10984 10985 10984 10985 10985 10985 10986 10987 10988 10988 10989 10989 10989 10989 10990 10989 10988 10989 10989 10989 10989 10989 10987 10987 10987 10987 10987 10986
10902 10908 10914 10918 10921 10917 10923 10924 10932 10937 10946 10953 10959 10963 10965 10969 10971 10972 10973 10975 10977 10978 10979 10980 10979 10980 10981 10981 10982 10983 10984 10985 10985 10985 10985 10985 10985 10984 10984 10984 10984 10984 10985 10984 10984 10983 10983 10982 10981
10888 10894 10903 10908 10907 10903 10907 10914 10921 10929 10934 10942 10948 10953 10956 10958 10962 10964 10966 10967 10969 10970 10971 10973 10974 10974 10975 10976 10978 10978 10978 10979 10980 10979 10980 10981 10980 10980 10981 10980 10980 10979 10979 10979 10978 10978 10978 10977 10976
10875 10880 10889 10893 10892 10892 10894 10908 10910 10919 10923 10928 10935 10939 10945 10947 10951 10954 10956 10958 10958 10959 10963 10965 10967 10968 10969 10969 10970 10971 10972 10974 10975 10974 10974 10974 10975 10975 10975 10976 10975 10975 10974 10974 10973 10973 10972 10972 10971
10859 10866 10874 10878 10879 10878 10880 10899 10901 10905 10912 10912 10920 10923 10931 10936 10939 10943 10946 10948 10949 10950 10951 10953 10956 10958 10960 10961 10962 10963 10964 10965 10966 10968 10969 10968 10968 10969 10968 10968 10969 10969 10968 10968 10967 10967 10968 10968 10967
10842 10851 10859 10860 10863 10861 10874 10886 10893 10890 10894 10903 10905 10911 10917 10921 10924 10929 10933 10936 10939 10942 10941 10944 10945 10947 10949 10951 10953 10954 10955 10956 10957 10958 10960 10961 10961 10961 10962 10962 10962 10962 10962 10962 10962 10961 10960 10960 10960
10823 10837 10840 10841 10848 10846 10863 10871 10873 10876 10878 10885 10894 10898 10904 10908 10911 10914 10918 10923 10926 10928 10932 10933 10935 10936 10937 10938 10941 10943 10945 10946 10947 10948 10949 10951 10951 10952 10953 10953 10953 10953 10954 10955 10955 10955 10954 10954 10954
10808 10817 10818 10825 10833 10835 10843 10848 10856 10863 10862 10868 10876 10885 10892 10896 10898 10899 10901 10907 10911 10915 10918 10922 10924 10924 10926 10927 10928 10930 10933 10934 10936 10937 10938 10939 10940 10941 10942 10944 10944 10945 10946 10948 10948 10948 10948 10949 10949
10790 10795 10801 10809 10816 10817 10821 10830 10846 10843 10852 10852 10856 10866 10882 10881 10885 10886 10889 10892 10896 10902 10905 10906 10909 10911 10913 10915 10917 10919 10921 10921 10922 10924 10925 10927 10928 10930 10931 10932 10934 10935 10936 10937 10938 10940 10939 10940 10941
10772 10775 10783 10789 10798 10796 10807 10813 10826 10832 10832 10831 10840 10847 10867 10870 10875 10873 10877 10881 10883 10886 10888 10890 10894 10897 10899 10901 10903 10906 10905 10906 10907 10910 10911 10912 10915 10916 10918 10920 10923 10924 10925 10926 10927 10928 10930 10931 10932
10754 10758 10765 10770 10778 10782 10792 10797 10809 10808 10816 10813 10827 10829 10845 10854 10860 10862 10864 10864 10867 10869 10872 10876 10878 10882 10884 10886 10887 10888 10889 10890 10892 10894 10897 10899 10900 10902 10905 10906 10908 10910 10913 10916 10917 10918 10919 10920 10922
10739 10743 10747 10753 10762 10768 10777 10783 10788 10794 10801 10799 10806 10814 10824 10835 10842 10846 10849 10850 10850 10851 10852 10858 10859 10864 10864 10868 10868 10870 10871 10875 10877 10879 10882 10884 10886 10888 10891 10893 10894 10896 10900 10903 10904 10906 10908 10908 10910
10721 10726 10732 10739 10749 10757 10763 10765 10771 10775 10784 10787 10788 10792 10805 10816 10818 10825 10829 10831 10834 10834 10834 10836 10839 10841 10841 10848 10850 10853 10852 10855 10859 10863 10864 10866 10869 10873 10876 10878 10879 10880 10885 10888 10891 10893 10894 10895 10895
10708 10714 10721 10728 10737 10743 10750 10750 10755 10760 10766 10773 10775 10775 10782 10794 10802 10806 10808 10811 10812 10813 10814 10821 10824 10823 10822 10824 10827 10831 10834 10838 10841 10845 10848 10850 10856 10858 10861 10862 10862 10863 10866 10872 10874 10876 10879 10880 10882
10696 10702 10709 10720 10726 10735 10735 10734 10739 10747 10754 10757 10760 10762 10768 10774 10782 10786 10790 10790 10790 10792 10794 10797 10805 10807 10805 10805 10811 10813 10812 10813 10819 10825 10828 10829 10835 10840 10842 10844 10846 10849 10851 10855 10855 10859 10862 10863 10865
10681 10689 10697 10705 10714 10720 10721 10720 10728 10736 10738 10742 10747 10750 10756 10759 10763 10768 10773 10770 10771 10777 10774 10777 10780 10781 10773 10792 10788 10784 10785 10787 10796 10797 10805 10810 10816 10820 10825 10832 10830 10831 10834 10834 10837 10840 10844 10846 10849
10670 10678 10684 10689 10701 10706 10707 10708 10712 10723 10722 10729 10735 10740 10742 10748 10753 10752 10756 10759 10756 10757 10757 10757 10759 10757 10759 10760 10758 10759 10760 10760 10768 10773 10780 10789 10796 10801 10811 10813 10807 10815 10813 10819 10818 10820 10825 10830 10831
10656 10663 10669 10672 10684 10692 10693 10693 10698 10704 10709 10718 10720 10726 10730 10735 10739 10738 10742 10742 10740 10742 10740 10739 10738 10739 10735 10735 10728 10732 10732 10736 10743 10748 10756 10762 10771 10779 10790 10800 10800 10795 10796 10801 10799 10803 10803 10807 10811
10641 10648 10650 10652 10667 10675 10678 10677 10681 10687 10697 10705 10708 10710 10716 10721 10723 10725 10725 10726 10726 10727 10725 10724 10718 10714 10713 10708 10705 10705 10702 10711 10717 10723 10731 10738 10747 10757 10771 10797 10779 10770 10778 10781 10782 10786 10786 10787 10792
10622 10628 10630 10637 10652 10658 10664 10663 10666 10672 10682 10690 10697 10699 10701 10706 10709 10710 10709 10710 10712 10710 10708 10703 10698 10690 10686 10685 10684 10680 10684 10684 10690 10699 10707 10715 10725 10731 10746 10764 10747 10752 10759 10760 10762 10764 10766 10767 10774
10603 10609 10619 10624 10636 10642 10652 10646 10649 10660 10668 10675 10681 10687 10689 10690 10691 10692 10695 10695 10694 10693 10688 10682 10673 10669 10664 10660 10658 10659 10662 10664 10666 10673 10682 10691 10699 10707 10720 10731 10735 10734 10738 10742 10743 10742 10744 10746 10752
10586 10595 10603 10608 10616 10628 10632 10637 10635 10645 10655 10658 10666 10673 10677 10676 10674 10676 10678 10679 10679 10677 10674 10667 10659 10650 10645 10639 10634 10636 10639 10644 10644 10651 10661 10672 10680 10686 10695 10702 10709 10712 10715 10718 10717 10718 10724 10722 10728
10573 10580 10587 10593 10603 10613 10615 10629 10620 10638 10639 10644 10650 10657 10661 10661 10661 10661 10663 10664 10664 10663 10660 10654 10646 10636 10627 10622 10618 10617 10623 10627 10630 10636 10644 10651 10660 10667 10675 10680 10685 10687 10690 10691 10692 10697 10701 10705 10708
10560 10566 10572 10579 10587 10592 10605 10613 10610 10624 10618 10629 10633 10638 10643 10646 10646 10647 10648 10649 10650 10649 10645 10640 10635 10627 10618 10611 10607 10607 10612 10616 10620 10627 10631 10635 10641 10647 10653 10655 10660 10662 10664 10668 10672 10677 10680 10680 10685
10548 10555 10558 10569 10574 10579 10590 10593 10600 10605 10606 10610 10617 10622 10626 10630 10631 10631 10635 10635 10637 10636 10634 10630 10627 10620 10613 10607 10602 10600 10599 10601 10608 10611 10619 10621 10623 10627 10631 10636 10641 10644 10644 10646 10650 10655 10657 10657 10660
10536 10541 10549 10555 10562 10567 10572 10578 10579 10588 10590 10596 10601 10607 10610 10614 10617 10617 10621 10623 10623 10624 10623 10621 10619 10614 10609 10604 10600 10597 10596 10595 10596 10598 10602 10606 10611 10614 10614 10616 10617 10620 10622 10626 10626 10629 10631 10633 10635
10524 10531 10537 10543 10550 10553 10557 10560 10568 10575 10575 10580 10588 10592 10596 10599 10602 10605 10606 10610 10610 10611 10612 10610 10609 10606 10602 10599 10596 10594 10593 10593 10593 10594 10595 10597 10599 10598 10597 10596 10596 10598 10596 10598 10601 10604 10608 10607 10609
10513 10518 10524 10530 10536 10542 10546 10545 10553 10555 10562 10569 10576 10579 10582 10584 10587 10591 10594 10595 10597 10599 10600 10599 10598 10598 10595 10592 10590 10589 10588 10588 10588 10588 10588 10588 10587 10586 10585 10584 10584 10582 10581 10580 10581 10583 10582 10582 10584